EW5742 Weather Reports


Display with metric or nautical units.
time (UTC)temp
F
wind
direction
speed
MPH
gust
MPH
rain 1hr
in
rain 24hr
in
rain mn
in
humidity
%
barometer
mb
20260507101507 68 159 0.0 2.0 0.00 0.26 0.26 94 1011.8
20260507100005 68 210 0.0 2.0 0.00 0.26 0.26 94 1011.6
20260507094527 68 118 0.0 3.0 0.00 0.26 0.26 93 1011.6
20260507093025 68 190 0.0 2.0 0.00 0.26 0.26 93 1011.5
20260507091531 68 139 0.0 4.0 0.00 0.26 0.26 93 1011.7
20260507090026 68 248 0.0 2.0 0.00 0.26 0.26 93 1011.7
20260507084510 68 167 0.0 3.0 0.01 0.26 0.26 93 1010.6
20260507083007 68 130 0.0 1.0 0.03 0.26 0.26 93 1010.9
20260507081515 68 140 0.0 1.0 0.04 0.26 0.26 93 1011.3
20260507080013 69 120 0.0 1.0 0.04 0.26 0.26 92 1011.4
20260507074515 69 120 0.0 1.0 0.09 0.25 0.25 92 1012.1
20260507073008 69 120 0.0 1.0 0.17 0.23 0.23 92 1012.1
20260507071534 69 132 0.0 2.0 0.22 0.22 0.22 91 1012.3
20260507070012 69 217 0.0 4.0 0.22 0.22 0.22 91 1012.6
20260507064504 70 213 1.0 4.0 0.16 0.16 0.16 90 1013.1
20260507063004 71 239 0.0 3.0 0.06 0.06 0.06 88 1013.1
20260507061525 71 263 0.0 4.0 0.00 0.00 0.00 87 1012.9
20260507060023 70 225 1.0 7.0 0.00 0.00 0.00 87 1012.4
20260507053127 70 145 0.0 7.0 0.00 0.00 0.00 87 1012.5
20260507051601 70 115 0.0 5.0 0.00 0.00 0.00 87 1012.6
20260507050134 70 77 0.0 5.0 0.00 0.00 0.00 86 1012.6
20260507044531 70 229 0.0 7.0 0.00 0.00 0.00 86 1012.7
20260507043054 70 292 0.0 5.0 0.00 0.00 0.00 86 1012.8
20260507041558 70 146 1.0 7.0 0.00 0.00 0.00 86 1012.8
20260507040011 70 150 0.0 6.0 0.00 0.00 0.00 86 1013.0
20260507034527 70 151 0.0 6.0 0.00 0.00 0.00 86 1012.9
20260507033014 70 140 1.0 9.0 0.00 0.00 0.00 85 1012.9
20260507031509 70 180 1.0 7.0 0.00 0.00 0.00 85 1013.2
20260507030012 70 55 0.0 5.0 0.00 0.00 0.00 85 1013.0
20260507024510 70 259 2.0 10.0 0.00 0.00 0.00 84 1013.2
20260507023038 70 94 2.0 11.0 0.00 0.00 0.00 84 1013.1
20260507021537 71 152 2.0 10.0 0.00 0.00 0.00 83 1013.1
20260507020040 71 160 2.0 7.0 0.00 0.00 0.00 82 1013.2
20260507014542 71 193 0.0 6.0 0.00 0.00 0.00 81 1013.2
20260507013100 71 4 2.0 9.0 0.00 0.00 0.00 81 1013.4
20260507013003 71 240 1.0 9.0 0.00 0.00 0.00 81 1013.3
20260507011504 71 207 1.0 8.0 0.00 0.00 0.00 80 1013.2
20260507010044 71 147 1.0 11.0 0.00 0.00 0.00 79 1013.1
20260507004559 71 182 2.0 8.0 0.00 0.00 0.00 78 1013.0
20260507003044 71 227 3.0 11.0 0.00 0.00 0.00 77 1012.8
20260507001549 71 143 3.0 8.0 0.00 0.00 0.00 77 1013.1
20260507000132 71 172 2.0 9.0 0.00 0.00 0.00 77 1013.0
20260506234520 72 210 2.0 11.0 0.00 0.00 0.00 75 1012.8
20260506233114 72 197 3.0 11.0 0.00 0.00 0.00 74 1013.0
20260506231603 73 240 2.0 14.0 0.00 0.00 0.00 74 1012.9
20260506230045 72 105 1.0 10.0 0.00 0.00 0.00 75 1012.8
20260506224547 72 283 3.0 10.0 0.00 0.00 0.00 75 1012.9
20260506223111 72 191 4.0 16.0 0.00 0.00 0.00 75 1012.7
20260506221531 73 174 3.0 10.0 0.00 0.00 0.00 74 1013.1
20260506220038 73 46 2.0 8.0 0.00 0.00 0.00 72 1013.1
20260506214531 74 83 4.0 11.0 0.00 0.00 0.00 68 1012.7
20260506213030 76 171 7.0 16.0 0.00 0.00 0.00 60 1012.6
20260506211502 77 144 4.0 11.0 0.00 0.00 0.00 63 1013.0
20260506210003 78 139 5.0 12.0 0.00 0.00 0.00 64 1013.7
20260506204544 78 84 3.0 13.0 0.00 0.00 0.00 66 1013.5
20260506203037 78 203 4.0 13.0 0.00 0.00 0.00 67 1013.6
20260506201602 79 239 4.0 16.0 0.00 0.00 0.00 68 1013.7
20260506200105 78 252 4.0 16.0 0.00 0.00 0.00 69 1013.7
20260506194543 78 209 4.0 12.0 0.00 0.00 0.00 70 1013.9
20260506193040 79 141 7.0 19.0 0.00 0.00 0.00 69 1014.2
20260506191515 80 126 3.0 13.0 0.00 0.00 0.00 70 1014.4
20260506190022 79 176 4.0 11.0 0.00 0.00 0.00 70 1014.6
20260506184517 78 160 3.0 13.0 0.00 0.00 0.00 71 1014.6
20260506183015 78 146 3.0 14.0 0.00 0.00 0.00 71 1014.8
20260506181524 80 224 4.0 13.0 0.00 0.00 0.00 69 1014.6
20260506180022 80 154 5.0 15.0 0.00 0.00 0.00 67 1014.8
20260506174519 80 276 4.0 12.0 0.00 0.00 0.00 66 1015.0
20260506173019 80 223 7.0 14.0 0.00 0.00 0.00 66 1015.3
20260506171521 81 17 4.0 16.0 0.00 0.00 0.00 67 1015.4
20260506170016 80 134 3.0 15.0 0.00 0.00 0.00 67 1015.5
20260506164516 80 16 1.0 13.0 0.00 0.00 0.00 67 1015.6
20260506163016 80 150 3.0 12.0 0.00 0.00 0.00 68 1015.7
20260506153029 79 208 5.0 16.0 0.00 0.00 0.00 69 1016.1
20260506151528 79 258 4.0 10.0 0.00 0.00 0.00 69 1016.2
20260506144611 78 136 2.0 9.0 0.00 0.00 0.00 70 1016.2
20260506143055 78 217 3.0 13.0 0.00 0.00 0.00 69 1016.4
20260506141552 78 127 3.0 11.0 0.00 0.00 0.00 69 1016.1
20260506140007 77 154 5.0 13.0 0.00 0.00 0.00 69 1016.2
20260506134604 76 205 4.0 16.0 0.00 0.00 0.00 70 1016.1
20260506133010 77 146 2.0 8.0 0.00 0.00 0.00 71 1016.2
20260506131508 76 107 2.0 12.0 0.00 0.00 0.00 72 1016.3
20260506130038 76 152 2.0 8.0 0.00 0.00 0.00 72 1016.1
20260506124532 75 133 3.0 11.0 0.00 0.00 0.00 73 1016.0
20260506123006 75 226 3.0 9.0 0.00 0.00 0.00 74 1015.8
20260506121502 74 163 2.0 14.0 0.00 0.00 0.00 75 1015.7
20260506120030 73 128 1.0 10.0 0.00 0.00 0.00 75 1015.7
20260506114520 72 218 1.0 8.0 0.00 0.00 0.00 78 1015.9
20260506113021 70 65 2.0 6.0 0.00 0.00 0.00 81 1016.0
20260506111514 68 192 1.0 6.0 0.00 0.00 0.00 83 1015.9
20260506110046 66 150 1.0 4.0 0.00 0.00 0.00 85 1015.6
20260506104548 64 193 0.0 3.0 0.00 0.00 0.00 88 1015.7
20260506103038 62 157 0.0 3.0 0.00 0.00 0.00 90 1015.6